"TOA5","AWS1","CR1000","7964","CR1000.Std.14","CPU:AWS1_114.CR1","64363","TBL110"
"TIMESTAMP","RECORD","Wind_spd_WVc(1)","Wind_spd_WVc(2)","Air_Temp_Avg","Humidity_Avg","SW_upper_Wm2_Avg","Rain_Tot","Press_Avg","Issui_Tot","Depth_cm","SR50A_Raw","Quality","Ground_Temp_Avg(1)","Ground_Temp_Avg(2)","SW_lower_Wm2_Avg","Albedo_Avg","SWC_per(1)","SWC_per(2)","Period(1)","Period(2)"
"TS","RN","","","","","","","","","","","","","","","","","","",""
"","","WVc","WVc","Avg","Avg","Avg","Tot","Avg","Tot","Smp","Smp","Smp","Avg","Avg","Avg","Avg","Smp","Smp","Smp","Smp"
"2015-12-03 09:50:00",211944,0.036,279.6,5.653,100,25.03593,0,856.3763,0.5,-3.162,3.179,229,3.871,4.739,2.315412,0.092,53.9,62.24,34.25,36.19
"2015-12-03 10:00:00",211945,0.009,86.1,5.742,100,26.82814,0,856.2858,0.5,-3.616,3.183,201,3.872,4.733,2.429098,0.09,53.9,62.3,34.25,36.2
"2015-12-03 10:10:00",211946,0.001,12.29,5.872,100,29.53611,0,856.1488,1,-3.614,3.182,193,3.817,4.731,2.709524,0.092,54.07,62.36,34.29,36.21
"2015-12-03 10:20:00",211947,0.011,64.61,5.975,100,30.05883,0,856.1277,1,-3.361,3.179,188,3.881,4.721,2.728472,0.091,54.18,62.48,34.32,36.24
"2015-12-03 10:30:00",211948,0.164,212.9,5.942,100,34.19743,0,856.033,0.5,-3.109,3.177,194,3.96,4.704,3.080899,0.089,54.41,62.72,34.37,36.3
"2015-12-03 10:40:00",211949,0.134,324.9,5.778,100,66.30001,0,855.9318,0.5,-3.111,3.178,195,3.959,4.695,6.552123,0.099,54.41,63.02,34.37,36.36
"2015-12-03 10:50:00",211950,0.13,265.2,5.648,100,64.02044,0,855.7444,0,-2.96,3.177,189,3.899,4.695,6.131483,0.094,54.46,63.26,34.38,36.42
"2015-12-03 11:00:00",211951,0.126,196.1,5.699,100,47.5211,0,855.5674,0.5,-3.162,3.179,194,3.941,4.692,4.600507,0.096,54.41,63.75,34.37,36.53
"2015-12-03 11:10:00",211952,0.189,239,5.571,100,42.16412,0,855.3147,0,-3.314,3.181,177,4.037,4.683,4.062392,0.096,54.41,64.54,34.37,36.7
"2015-12-03 11:20:00",211953,0.142,300.4,5.562,100,43.57116,0,855.0683,0,-3.087,3.179,188,3.997,4.676,4.217763,0.097,54.35,65.16,34.36,36.84
"2015-12-03 11:30:00",211954,0.858,311.2,5.394,100,43.44146,0,854.8323,0,-3.012,3.179,195,4.024,4.669,4.282185,0.098,54.29,65.52,34.34,36.92
"2015-12-03 11:40:00",211955,0.735,281.6,5.227,100,39.59764,0,854.7692,0.5,-3.165,3.182,190,4.106,4.685,3.933547,0.1,54.29,65.52,34.34,36.92
"2015-12-03 11:50:00",211956,1.107,318.3,4.977,100,37.45171,0,854.744,0.5,-0.846,3.16,269,4.134,4.693,3.721333,0.099,54.35,65.52,34.36,36.92
"2015-12-03 12:00:00",211957,0.609,193.6,4.856,100,31.86677,0,854.546,0.5,-1.705,3.17,201,4.103,4.703,3.149112,0.099,54.35,65.65,34.36,36.95
"2015-12-03 12:10:00",211958,0.666,235.5,4.622,100,52.97241,0,854.3753,0,-1.555,3.169,222,4.142,4.705,5.411469,0.102,54.35,65.77,34.36,36.97
"2015-12-03 12:20:00",211959,1.17,280.5,4.394,100,80.46083,0,854.1942,0,-2.263,3.178,205,4.221,4.71,8.609845,0.107,54.35,65.83,34.36,36.99
"2015-12-03 12:30:00",211960,0.788,274.8,4.3,100,66.91313,0,
"2015-12-03 12:30:00",211960,0.788,274.8,4.3,100,66.91313,0,854.0489,0.5,-2.565,3.181,197,4.221,4.711,6.957603,0.104,54.29,65.89,34.34,37
"2015-12-03 12:40:00",211961,0.736,250.7,4.071,100,50.55528,0,854.0068,0,-3.75,3.194,191,4.224,4.724,5.051463,0.1,54.29,65.89,34.34,37
"2015-12-03 12:50:00",211962,0.403,295.7,4.033,100,51.28239,0,853.9267,0,-2.642,3.183,197,4.281,4.724,5.180307,0.1,54.29,65.89,34.34,37
"2015-12-03 13:00:00",211963,0.552,307.5,4.021,100,42.1877,0,854.0046,0,-2.617,3.183,197,4.307,4.714,4.354187,0.103,54.29,65.89,34.34,37
"2015-12-03 13:10:00",211964,0.886,274.6,3.699,100,47.54861,0,853.7667,0,-3.322,3.192,186,4.307,4.718,4.808932,0.102,54.29,65.83,34.34,36.99
"2015-12-03 13:20:00",211965,0.172,12.02,3.66,100,33.1559,0,853.7666,0.5,-3.246,3.191,187,4.307,4.747,3.478802,0.104,54.24,65.77,34.33,36.97
"2015-12-03 13:30:00",211966,0.802,170.5,3.559,100,34.03629,0,853.596,0,-3.474,3.195,187,4.278,4.749,3.58112,0.105,54.18,65.71,34.32,36.96
"2015-12-03 13:40:00",211967,0.725,191.6,3.362,100,39.84525,0,853.7287,0,-3.172,3.192,196,4.304,4.769,4.301133,0.108,54.18,65.59,34.32,36.93
"2015-12-03 13:50:00",211968,0.419,205.3,3.378,100,37.51459,0,853.5223,0,-2.82,3.19,209,4.338,4.78,3.91081,0.103,54.12,65.52,34.3,36.92
"2015-12-03 14:00:00",211969,0.813,193.8,3.141,100,31.30474,0,853.4717,0,-2.644,3.189,212,4.388,4.779,3.308272,0.106,54.12,65.4,34.3,36.89
"2015-12-03 14:10:00",211970,0.545,207,3.014,100,35.43547,0,853.4907,0,-3.373,3.196,200,4.394,4.79,3.971443,0.112,54.07,65.34,34.29,36.88
"2015-12-03 14:20:00",211971,0.648,295.4,2.943,100,43.46898,0,853.5055,0,-3.524,3.198,178,4.394,4.773,4.702825,0.108,54.01,65.22,34.27,36.85
"2015-12-03 14:30:00",211972,0.445,286.1,2.968,100,39.40113,0,853.556,0,-3.146,3.195,203,4.403,4.765,4.376924,0.111,53.95,65.03,34.26,36.81
"2015-12-03 14:40:00",211973,1.259,319.5,2.662,100,49.01068,0,853.5055,0,-2.343,3.188,214,4.443,4.756,5.521367,0.113,53.95,64.79,34.26,36.76
"2015-12-03 14:50:00",211974,1.133,295.6,2.605,100,37.13335,0,853.4676,0,-3.373,3.199,200,4.484,4.757,4.380713,0.118,53.9,64.73,34.25,36.74
"2015-12-03 15:00:00",211975,0.749,275,2.471,100,27.07968,0,853.3454,0.5,-4.075,3.206,187,4.475,4.766,3.187007,0.118,53.9,64.6,34.25,36.72
"2015-12-03 15:10:00",211976,0.527,49.35,2.394,100,20.80322,0,853.5097,0,-4.377,3.212,180,4.484,4.755,2.451859,0.118,53.9,64.54,34.25,36.7
"2015-12-03 15:20:00",211977,0.387,310.3,1.965,100,23.0476,0,853.4844,0,-3.851,3.208,189,4.485,4.754,2.660306,0.115,53.78,64.48,34.22,36.69
"2015-12-03 15:30:00",211978,0.437,239.3,1.637,100,16.60216,0,853.615,0,-3.927,3.211,188,4.491,4.768,2.493616,0.158,53.78,64.48,34.22,36.69
"2015-12-03 15:40:00",211979,0.616,276.6,1.172,100,9.916808,0,853.7582,0.5,-3.633,3.211,174,4.499,4.789,2.099554,0.212,53.78,63.32,34.22,36.43
"2015-12-03 15:50:00",211980,0.44,258,0.871,100,9.139126,0,853.7498,0,0.067,3.175,259,4.517,4.816,2.228549,0.252,53.78,63.26,34.22,36.42
"2015-12-03 16:00:00",211981,0.216,194.9,0.606,100,6.513614,0,853.7604,0.5,-2.444,3.202,198,4.531,4.842,1.982277,0.311,53.84,63.14,34.23,36.39
"2015-12-03 16:10:00",211982,0.089,224.6,0.463,100,4.630979,0,853.7619,0,-1.799,3.195,232,4.568,4.862,1.936917,0.422,53.78,63.14,34.22,36.39
"2015-12-03 16:20:00",211983,0.698,230.5,0.335,100,2.118998,0,853.8375,0.5,-3.881,3.217,191,4.591,4.887,0.8945746,0.43,53.73,63.08,34.21,36.38
"2015-12-03 16:30:00",211984,0.283,205.3,0.307,100,1.089029,0,853.8622,0,-1.609,3.195,210,4.607,4.9,0.5307019,0.493,53.78,63.08,34.22,36.38
"2015-12-03 16:40:00",211985,0.397,245.5,0.179,100,0.5622167,0,853.9169,0,-1.309,3.192,216,4.58,4.875,0.1743764,0.297,53.73,63.02,34.21,36.36
"2015-12-03 16:50:00",211986,0.45,204.4,0.088,100,0.2398285,0,854.0803,0,-1.835,3.198,206,4.569,4.875,0.003790825,0.016,53.73,62.96,34.21,36.35
"2015-12-03 17:00:00",211987,0.443,141.6,0.014,100,0.2123077,0,854.108,0,-1.809,3.199,204,4.558,4.899,0,0,53.67,62.96,34.19,36.35
"2015-12-03 17:10:00",211988,0.312,294.1,-0.178,100,0.007863251,0,854.0685,0,-1.983,3.201,200,4.494,4.916,0,0,53.67,62.9,34.19,36.34
"2015-12-03 17:20:00",211989,0.143,249.6,-0.076,100,0,0,854.0982,0,-1.909,3.2,200,4.492,4.936,0,0,53.67,62.9,34.19,36.34
"2015-12-03 17:30:00",211990,0.3,269.1,-0.209,100,0,0,854.1003,0,-2.258,3.204,198,4.483,4.95,0,0,53.61,62.84,34.18,36.32
"2015-12-03 17:40:00",211991,0.365,150.5,-0.324,100,0,0,854.0982,0,-1.657,3.199,206,4.482,4.938,0,0,53.61,62.84,34.18,36.32
"2015-12-03 17:50:00",211992,0.231,151,-0.378,100,0,0,854.1298,0,-2.056,3.204,200,4.483,4.935,0,0,53.56,62.78,34.17,36.31
"2015-12-03 18:00:00",211993,0.14,96.9,-0.569,100,0,0,854.134,0,-1.731,3.2,205,4.463,4.939,0,0,53.56,62.66,34.17,36.28
"2015-12-03 18:10:00",211994,0.216,77.1,-0.555,100,0,0,854.1783,0,-1.955,3.203,200,4.44,4.931,0,0,53.5,62.72,34.15,36.3
"2015-12-03 18:20:00",211995,0.236,107.1,-0.649,100,0,0,854.0982,0,-1.605,3.2,202,4.44,4.921,0,0,53.5,62.66,34.15,36.28
"2015-12-03 18:30:00",211996,0.265,103.5,-0.76,100,0,0,854.0961,0.5,-1.904,3.203,206,4.456,4.918,0,0,53.5,62.66,34.15,36.28
"2015-12-03 18:40:00",211997,0.137,84.5,-0.731,100,0,0,854.0982,0,-1.554,3.2,214,4.478,4.942,0,0,53.5,62.6,34.15,36.27
"2015-12-03 18:50:00",211998,0.077,107.1,-0.766,100,0,0,853.8705,0,-1.804,3.202,227,4.443,4.975,0.02653586,0,53.5,62.6,34.15,36.27
"2015-12-03 19:00:00",211999,0.18,110.8,-0.713,100,0,0,853.8453,0,-1.654,3.201,217,4.396,4.989,0.1781693,0,53.45,62.54,34.14,36.25
"2015-12-03 19:10:00",212000,0.539,74.37,-0.814,100,0,0,853.8453,0,-1.703,3.202,203,4.333,4.979,0.1478426,0,53.39,62.54,34.13,36.25
"2015-12-03 19:20:00",212001,0.478,60.19,-0.855,100,0,0,853.8201,0.5,-2.651,3.212,212,4.353,5.002,0.163006,0,53.39,62.54,34.13,36.25
"2015-12-03 19:30:00",212002,0.679,48.78,-0.92,100,0,0,853.78,0.5,-1.203,3.198,258,4.354,5.002,0.1023526,0,53.39,62.48,34.13,36.24
"2015-12-03 19:40:00",212003,0.35,44.46,-0.999,100,0,0,853.8221,0,-1.652,3.203,220,4.372,5.002,0.04549004,0,53.39,62.48,34.13,36.24
"2015-12-03 19:50:00",212004,0.775,64.83,-1.212,100,0,0,853.8453,0,-1.7,3.204,228,4.32,5.002,0,0,53.33,62.48,34.11,36.24
"2015-12-03 20:00:00",212005,0.442,59.95,-1.24,100,0,0,853.8474,0,-1.849,3.206,229,4.303,5.002,0.02274502,0,53.33,62.42,34.11,36.23
"2015-12-03 20:10:00",212006,0.305,82,-1.259,100,0,0,853.8453,0,-1.998,3.208,219,4.243,5.002,0.1440518,0,53.33,62.42,34.11,36.23
"2015-12-03 20:20:00",212007,0.415,69.19,-1.342,100,0,0,853.8495,0,-2.097,3.209,211,4.245,5.002,0.2236593,0,53.33,62.36,34.11,36.21
"2015-12-03 20:30:00",212008,0.503,48.65,-1.48,100,0,0,853.8453,0,-1.822,3.207,233,4.254,5.009,0.185751,0,53.28,62.36,34.1,36.21
"2015-12-03 20:40:00",212009,0.745,68.68,-1.546,100,0,0,853.8221,0,-1.371,3.204,214,4.241,5.002,0.1705876,0,53.28,62.36,34.1,36.21
"2015-12-03 20:50:00",212010,0.741,53.71,-1.758,100,0,0,853.8453,0,-1.769,3.208,222,4.223,5.002,0.07960757,0,53.22,62.3,34.08,36.2
"2015-12-03 21:00:00",212011,0.631,50.13,-1.829,100,0,0,853.8495,0,-1.394,3.205,228,4.223,5.002,0.1895418,0,53.22,62.24,34.08,36.19
"2015-12-03 21:10:00",212012,0.457,59.07,-1.86,100,0,0,854.035,0,-1.543,3.207,212,4.223,5.002,0.2274502,0,53.22,62.24,34.08,36.19
"2015-12-03 21:20:00",212013,0.381,350.4,-1.85,100,0,0,854.0539,0.5,-1.743,3.208,209,4.225,5.002,0.2464044,0,53.22,62.12,34.08,36.16
"2015-12-03 21:30:00",212014,0.437,95.2,-1.915,100,0,0,854.1761,0,-1.69,3.209,202,4.185,5.006,0.1895418,0,53.22,62.12,34.08,36.16
"2015-12-03 21:40:00",212015,0.611,51.55,-2.103,100,0,0,854.2372,0,-1.639,3.209,212,4.181,5.006,0.06065338,0,53.22,62.12,34.08,36.16
"2015-12-03 21:50:00",212016,0.388,59.39,-2.228,99.4,0,0,854.0897,0,-1.787,3.211,203,4.207,5.003,0.1288884,0,53.16,62.06,34.07,36.15
"2015-12-03 22:00:00",212017,0.267,59.71,-2.3,99.7,0,0,853.8937,0,-1.712,3.211,200,4.174,5.002,0.2464046,0,53.16,62.06,34.07,36.15
"2015-12-03 22:10:00",212018,0.617,186.3,-2.228,99,0,0,853.8685,0,-1.764,3.211,210,4.141,5.007,0.5041877,0,53.16,62,34.07,36.13
"2015-12-03 22:20:00",212019,0.294,102.8,-2.301,95.7,0,0,853.8453,0,-1.688,3.211,204,4.139,5.006,0.3032698,0,53.16,62,34.07,36.13
"2015-12-03 22:30:00",212020,0.305,78.66,-2.4,95.6,0,0,853.8116,0,-1.696,3.211,203,4.146,5.015,0.265369,0,53.11,62,34.06,36.13
"2015-12-03 22:40:00",212021,0.265,114,-2.386,95.7,0,0,853.8369,0,-1.752,3.211,203,4.156,5.024,0.4701026,0,53.16,61.94,34.07,36.12
"2015-12-03 22:50:00",212022,0.642,91.1,-2.346,96.7,0,0,853.7906,0,-1.707,3.211,213,4.179,5.041,0.3867151,0,53.11,61.88,34.06,36.11
"2015-12-03 23:00:00",212023,0.438,42.22,-2.377,99.2,0,0,853.8469,0,-1.708,3.211,203,4.159,5.047,0.2312739,0,53.05,61.88,34.04,36.11
"2015-12-03 23:10:00",212024,0.511,57.9,-2.448,100,0,0,853.7841,0,-1.559,3.21,211,4.134,5.048,0.1895713,0,53.05,61.82,34.04,36.09
"2015-12-03 23:20:00",212025,0.671,71.29,-2.518,100,0,0,853.6006,0,-1.661,3.211,208,4.149,5.053,0.1819907,0,53.05,61.82,34.04,36.09
"2015-12-03 23:30:00",212026,0.391,57.19,-2.53,99.5,0,0,853.5033,0,-1.662,3.212,206,4.182,5.062,0.1971614,0,53.05,61.76,34.04,36.08
"2015-12-03 23:40:00",212027,0.696,65.77,-2.65,96.7,0,0,853.3471,0,-1.569,3.211,206,4.188,5.062,0.2388733,0,53.05,61.76,34.04,36.08
"2015-12-03 23:50:00",212028,0.664,83.9,-2.624,96.8,0,0,853.1338,0,-1.572,3.211,214,4.178,5.087,0.307135,0,53.05,61.76,34.04,36.08
